Weather in Tynda

Russia / Amur Oblast     55°09′16″N   124°43′45″E
temp.,
°C
wind,
m/s
gust,
m/s
humid.,
%
clouds,
%
prec.,
mm/h
press.,
hPa
HPBL,
m
16 may, sun
sun1600:00+3w22746 0.0 100134
03:00+1wnw22771 0.0 100225
06:00+3w22720 0.0 100184
09:00+10wnw35410 0.0 998871
12:00+14w34325 0.0 9961864
15:00+15wnw3629100 0.0 9942529
18:00+10s136750 0.9 995594
21:00+5nnw11890 1.6 99510
17 may, mon
mon1700:00+3nw2291100 0.0 99747
03:00+2wnw2292100 0.0 99736
06:00+3nnw287489 0.1 9981277
09:00+4nnw6858100 0.3 10001596
12:00+6nw6737100 0.1 10002264
15:00+7nnw593399 0.1 10012968
18:00+7nw3530100 0.0 10022409
21:00+1nne22505 0.0 100419
18 may, tue
tue1800:00−2nne115557 0.0 100510
03:00−1ne1152100 0.0 100513
06:000ne1248100 0.1 1005111
09:00+4ene4729100 0.4 10021870
12:00+5ne2433100 0.5 10022109
15:00+5nne3339100 0.9 10022034
18:00+5n445493 0.1 10031316
21:000nnw357736 0.1 100589
19 may, wed
wed1900:00−2nw118462 0.0 100717
03:00−3wnw118769 0.0 100712
06:00−1w126529 0.0 100898
09:00+5wnw22360 0.0 10071384
12:00+8sw252699 0.0 10052809
15:00+9wsw462997 0.0 10032618
18:00+8sw3443100 0.0 10031620
21:00+5w1159100 0.0 100412
20 may, thu
thu2000:00+2sse267896 0.0 1005190
03:00+2ese2797100 0.1 1004527
06:00+2e2699100 0.2 1003452
09:00+2ese2495100 0.3 1004534
12:00+5e1178100 0.1 1004661
15:00+8wnw3561100 0.1 10031445
18:00+9nw2545100 0.1 10031389
21:00+4nnw2271100 0.1 100619